Temperature
21 22 23 24 24 24 23 22 21 21 21 21 21 21 21 21 21 21 21 21 22 22 21 21 22 21 21 21 21 20 20 20 20 19 19 19 19 19 19 19 19 18 18 18
20 22 23 23 24 24 24 23 22 22 21 20 21 21 21 21 21 20 21 21 21 21 21 21 21 21 21 20 20 20 19 19 19 19 19 19 19 19 19 18 18 18 18 18
18 20 21 21 22 23 22 22 22 21 20 20 20 20 20 20 20 20 20 20 20 20 20 20 20 20 20 20 20 19 19 19 19 18 18 18 18 18 18 18 18 18 17 17
17 19 20 19 21 22 21 21 21 20 20 20 19 20 20 20 20 20 20 20 19 19 20 20 20 20 20 19 19 19 19 19 18 18 18 18 18 18 17 17 17 17 17 17
16 17 18 20 21 21 20 19 19 19 19 19 20 19 19 20 20 20 20 20 20 19 19 19 19 19 19 19 19 18 18 18 18 18 18 18 17 17 17 17 17 16 16 16
16 17 18 18 21 21 20 18 19 18 18 18 18 17 17 19 19 19 19 19 19 19 19 19 19 18 18 18 18 18 18 18 17 17 17 17 17 17 16 16 16 16 16 16
15 16 17 18 20 20 18 17 18 18 18 18 17 17 18 18 18 19 19 19 19 18 18 18 18 18 18 18 17 17 17 17 17 17 16 16 16 16 16 16 16 15 15 15
14 15 16 17 18 17 16 17 17 18 18 18 18 18 17 17 17 18 18 18 18 18 18 18 18 18 17 17 17 17 16 16 16 16 16 16 16 15 16 15 15 15 15 15
14 15 16 17 17 17 18 17 17 17 17 17 17 17 17 17 17 17 17 17 17 18 18 17 17 17 17 17 16 16 16 16 16 16 15 15 15 15 15 15 15 15 14 14
14 15 16 17 17 17 17 17 17 17 17 17 17 16 16 16 16 16 16 17 17 17 17 17 16 16 16 16 16 15 15 15 15 15 15 15 14 14 14 14 14 14 14 14
13 14 15 16 16 17 17 17 17 16 16 16 16 16 16 16 16 16 16 16 16 16 16 16 16 15 15 15 15 15 15 14 14 14 14 14 14 14 14 14 14 14 14 13
13 14 13 15 16 16 16 16 16 16 15 15 15 15 15 15 15 15 15 15 15 15 15 15 15 15 14 14 14 14 14 14 14 14 13 13 13 13 13 13 13 13 13 13
15 15 15 15 15 15 15 15 15 15 15 15 15 15 15 15 15 15 15 15 15 15 15 14 14 14 14 14 14 14 14 13 13 13 13 13 13 13 12 12 12 12 12 12
15 15 15 15 15 15 15 15 15 14 15 15 15 15 14 14 14 14 14 14 14 14 14 14 14 14 13 13 13 13 13 13 13 12 12 12 12 12 12 12 12 12 12 12
15 15 14 14 14 14 14 14 14 14 14 14 14 14 14 14 14 14 14 14 14 13 13 13 13 13 13 13 13 13 13 12 12 12 12 12 12 12 12 11 11 11 11 11
14 14 14 14 14 14 14 14 13 13 14 14 14 14 14 13 13 13 13 13 13 13 13 13 12 12 12 12 12 12 12 12 12 12 12 11 11 11 11 11 11 11 11 11
13 13 13 13 13 13 13 13 13 14 13 13 13 13 13 13 13 13 13 12 12 12 12 12 12 12 12 12 12 12 12 11 11 11 11 11 11 11 11 11 10 10 10 10
13 13 13 13 13 13 13 13 13 13 13 13 13 13 13 13 12 12 12 12 12 12 12 12 11 11 11 11 11 11 11 11 11 11 11 11 11 11 10 10 10 10 10 10
13 13 13 13 13 13 13 13 13 12 12 12 12 12 12 12 12 12 12 12 11 11 11 11 11 11 11 11 11 11 11 11 11 10 10 10 10 10 10 10 10 9 9 9
13 13 13 13 13 12 12 12 12 12 12 12 12 12 11 11 11 11 11 11 11 11 11 11 11 11 11 11 11 11 11 10 10 10 10 10 10 10 10 9 9 9 9 9
12 12 12 12 12 12 12 12 12 12 12 12 11 11 11 11 11 11 11 11 11 11 11 11 11 11 11 11 11 10 10 10 10 10 10 10 10 9 9 9 9 9 9 8
12 12 12 12 12 12 12 12 12 11 11 11 11 11 11 10 10 10 10 10 10 10 10 10 10 10 10 10 10 10 10 10 10 10 9 9 9 9 9 9 8 8 8 8
11 11 12 12 12 12 12 11 11 11 11 11 11 11 11 10 10 10 10 10 10 10 10 10 10 10 10 10 10 10 10 10 9 9 9 9 9 9 9 8 8 8 8 8
11 11 11 11 11 11 11 11 11 11 11 11 11 11 11 10 10 10 10 10 10 10 10 10 10 10 10 10 10 10 9 9 9 9 9 9 9 9 8 8 8 8 8 8
11 11 11 11 11 11 11 11 11 11 11 11 11 11 11 11 10 10 10 10 10 10 10 10 10 10 10 10 9 9 9 9 9 9 9 9 9 8 8 8 8 8 8 8
11 11 11 11 11 11 11 11 11 11 11 11 11 11 11 11 11 10 10 10 10 10 10 10 10 10 10 9 9 9 9 9 9 9 9 9 8 8 8 8 8 8 7 7
11 11 11 11 11 11 11 11 11 11 11 11 11 11 11 11 11 11 10 10 10 10 10 10 10 10 9 9 9 9 9 9 9 9 9 8 8 8 8 8 8 7 7 7
Wind_Speed
4 5 3 4 7 5 2 5 6 7 8 9 8 8 7 7 7 7 7 7 6 5 4 5 5 5 4 4 4 6 6 7 7 6 6 6 6 6 5 5 5 4 3 3
4 4 5 5 6 4 3 1 2 3 2 3 4 5 6 7 8 7 7 6 6 5 5 5 5 5 4 4 3 5 6 6 6 6 6 6 6 6 5 4 4 3 3 3
4 6 5 4 3 1 1 1 3 4 4 5 4 5 6 7 8 8 7 6 5 5 4 4 4 4 5 3 3 4 5 5 5 5 5 5 6 4 4 4 3 3 3 3
1 4 4 6 3 3 4 4 3 3 4 6 6 4 3 5 7 7 7 7 6 4 4 4 4 4 4 4 4 4 5 5 5 5 5 5 5 5 4 3 3 3 3 3
3 3 5 5 4 2 2 3 3 4 3 4 6 6 4 2 3 5 6 5 5 5 5 4 4 4 4 4 4 5 4 4 4 5 5 4 5 4 3 3 3 3 3 3
3 3 4 5 5 1 4 2 3 4 4 4 6 3 2 1 3 4 4 5 5 4 5 5 4 5 5 4 4 4 4 4 4 4 4 4 4 4 3 3 3 3 3 3
4 4 5 6 7 3 3 3 3 2 4 4 3 4 4 2 3 3 4 5 6 5 4 4 4 5 5 3 3 3 3 3 3 4 4 4 4 3 3 3 2 2 2 2
3 3 6 5 4 3 4 2 0 1 3 4 4 5 5 4 3 3 4 4 5 5 3 3 4 5 5 3 2 2 3 3 2 2 3 3 3 2 2 2 2 2 1 1
4 5 5 1 2 2 3 2 1 1 2 4 6 5 4 3 3 3 4 4 4 5 4 2 3 5 4 3 2 3 4 3 2 1 1 2 3 2 2 1 1 1 1 1
1 3 2 1 1 1 2 2 2 3 3 4 5 4 3 3 3 2 2 2 3 5 4 2 2 3 4 3 3 4 4 3 2 2 1 1 1 2 2 2 2 2 2 3
3 4 3 4 2 1 2 4 5 4 3 3 3 3 3 2 2 2 1 1 2 4 3 2 2 2 2 3 4 4 3 3 2 2 2 1 1 0 1 2 3 4 3 3
6 6 3 4 3 1 4 3 3 3 2 2 3 2 2 1 1 2 1 1 2 2 2 2 2 2 2 3 3 4 3 2 1 1 1 1 1 2 4 1 2 0 1 2
6 4 3 3 2 1 2 1 1 2 1 1 1 2 2 2 2 2 2 1 1 2 2 2 2 2 1 2 3 4 3 3 2 2 1 1 2 1 0 3 4 3 2 1
5 3 3 3 3 2 2 2 1 1 1 2 2 2 2 2 1 2 2 2 2 2 2 2 2 2 1 2 3 3 3 3 3 2 2 1 2 2 2 2 0 2 3 2
4 3 4 3 2 2 2 1 1 1 1 1 1 2 3 3 2 1 1 2 3 3 3 3 3 1 1 3 3 2 2 2 2 2 2 1 1 1 1 1 1 0 1 2
2 1 2 3 2 2 2 2 2 3 3 2 2 2 3 4 3 1 1 2 4 3 2 2 2 1 1 2 3 2 2 2 2 2 2 2 1 1 1 1 1 1 1 1
1 1 2 2 2 2 2 3 4 4 3 4 4 4 4 4 4 3 3 2 3 2 1 1 1 1 1 2 2 2 1 1 1 1 2 2 2 2 2 2 2 2 2 1
3 3 4 4 3 2 2 3 3 3 4 4 4 4 4 4 4 2 2 2 3 3 2 1 0 0 0 1 1 2 2 1 1 1 2 2 2 2 2 2 2 2 1 1
2 2 2 3 3 4 4 5 4 4 4 4 5 5 4 4 3 2 2 3 2 1 2 2 1 0 0 0 1 1 1 2 1 1 1 2 1 1 2 2 2 2 1 1
2 2 3 4 4 4 4 4 5 4 3 4 5 4 4 2 2 2 2 2 1 2 2 1 1 1 1 1 1 1 1 2 2 2 1 2 2 1 1 1 2 2 1 1
4 4 5 5 4 3 4 5 5 4 2 3 4 4 3 2 2 2 3 1 2 2 0 0 0 1 1 1 1 1 1 1 2 2 2 2 2 1 1 2 2 2 2 2
4 4 4 4 4 4 3 4 5 4 3 3 3 3 3 2 2 2 1 2 2 1 0 0 0 1 0 1 1 1 1 1 1 2 2 2 2 2 2 1 1 1 1 1
3 3 3 3 4 4 4 4 4 4 3 3 3 3 3 2 2 2 1 2 2 1 1 1 1 1 0 1 1 1 1 1 1 1 2 2 2 2 1 1 1 1 1 1
2 2 2 3 4 5 4 2 2 2 2 2 2 3 3 2 1 1 3 2 2 2 1 1 1 0 1 1 1 1 1 1 1 1 2 2 1 1 1 1 1 1 1 2
2 2 3 4 4 2 2 2 2 2 1 1 1 1 1 2 2 2 1 2 2 2 1 0 1 0 1 1 1 1 1 1 1 1 2 2 1 1 1 2 2 2 2 2
2 2 2 2 3 2 2 2 2 1 2 1 0 0 0 0 1 1 1 1 2 2 1 1 0 0 0 0 1 1 0 0 1 1 1 1 1 1 1 1 1 1 1 1
1 1 2 2 1 1 2 2 2 1 1 2 1 1 1 1 1 1 1 0 1 1 1 1 1 1 0 0 1 1 1 1 1 0 1 1 1 1 0 1 1 1 1 0
Wind_Direction
236 258 287 300 308 307 256 200 201 217 193 206 193 174 162 145 136 130 135 134 133 136 142 138 130 130 138 146 161 172 176 183 189 184 180 178 182 193 190 187 192 194 199 208
327 321 335 315 308 304 298 270 188 147 201 207 168 133 128 136 134 133 139 140 135 126 124 131 138 142 137 145 159 158 168 179 175 175 179 183 190 192 188 193 188 174 187 202
291 311 354 300 295 355 12 300 164 196 207 154 129 146 162 160 149 144 143 139 140 141 135 138 141 139 144 151 146 149 160 164 164 169 175 182 188 189 193 194 181 177 195 206
242 5 252 252 298 71 73 35 46 117 151 149 149 151 137 144 144 143 142 142 145 142 139 136 125 118 130 129 139 146 145 149 156 156 166 176 180 194 195 181 177 201 212 230
156 213 268 297 320 348 72 350 18 100 103 108 107 78 54 75 121 143 145 143 139 138 138 125 115 112 103 116 129 132 139 155 162 160 164 170 174 182 181 172 192 205 187 195
163 187 231 264 292 278 96 348 342 96 108 116 96 96 241 317 91 103 117 121 121 118 112 115 122 113 110 121 127 145 159 163 154 157 165 171 174 171 171 166 184 187 177 186
189 213 252 277 309 32 123 221 293 121 126 121 146 181 192 156 108 108 117 122 120 117 125 141 144 128 128 120 146 177 157 138 139 151 162 164 159 157 161 169 175 189 195 211
171 199 248 301 27 104 198 226 357 95 117 110 116 119 130 127 116 100 104 116 124 132 139 140 138 134 136 146 177 151 129 130 134 145 157 150 146 159 168 171 173 186 195 255
191 217 245 301 131 181 149 118 100 106 102 116 115 122 133 122 114 105 115 133 140 139 130 121 133 132 139 168 154 132 126 130 134 126 133 153 160 165 172 174 178 191 194 220
334 279 284 342 66 54 91 94 74 74 97 115 131 135 134 129 131 115 99 127 123 122 126 132 135 135 156 162 151 140 143 148 145 130 110 88 127 160 175 184 187 196 203 222
282 281 335 330 332 125 100 84 76 62 70 84 102 118 135 150 144 123 88 54 101 129 142 165 165 161 170 161 150 144 149 149 151 152 152 118 59 325 219 230 216 206 212 206
245 247 233 276 292 131 115 106 99 83 52 64 100 114 117 156 152 120 107 85 100 122 149 175 177 188 200 184 161 147 142 149 157 155 153 149 130 25 16 4 2 24 195 194
228 240 221 242 291 318 135 155 145 144 169 161 150 150 147 169 174 153 143 125 148 165 168 180 173 176 193 170 151 149 157 165 162 162 172 180 173 163 329 9 29 34 35 57
240 234 257 242 238 232 159 164 168 187 200 199 177 165 165 164 169 162 171 179 157 133 117 116 116 129 158 135 133 147 159 160 155 164 182 209 206 191 182 177 22 5 9 16
265 237 220 211 181 177 160 153 160 192 214 188 175 174 167 155 154 167 168 133 112 102 95 98 109 128 146 121 121 137 144 153 157 160 173 195 201 176 159 169 168 185 6 9
254 175 135 138 156 168 143 155 186 207 200 186 150 135 127 126 120 100 74 104 111 112 122 121 140 213 171 134 126 132 155 188 189 169 175 176 175 163 168 175 181 193 198 222
181 191 172 156 168 175 177 194 187 182 170 153 141 129 115 102 88 73 59 77 106 119 132 152 204 212 161 158 156 169 181 209 211 157 174 177 178 185 192 184 188 204 226 224
197 207 197 179 177 173 151 125 118 127 140 142 131 121 114 109 104 95 86 83 77 50 23 355 295 75 149 204 169 169 168 189 194 187 197 192 188 183 180 180 183 192 235 268
137 141 136 140 156 149 135 120 116 115 110 109 111 118 123 125 127 125 100 89 94 63 319 325 351 36 274 244 156 156 158 156 142 153 170 156 157 168 176 185 190 195 199 217
72 106 111 99 101 113 121 121 116 110 114 117 114 115 113 122 140 138 113 105 207 226 245 288 31 23 343 340 60 110 138 145 151 158 147 144 150 155 171 186 192 201 208 226
57 75 90 96 99 104 116 118 112 108 110 124 130 135 142 152 146 135 122 110 291 280 254 124 61 323 314 356 61 98 127 142 158 167 162 164 168 174 185 194 198 210 215 225
52 66 93 104 109 102 104 114 119 121 118 117 127 135 135 137 137 126 138 199 247 268 160 147 261 295 330 86 97 121 137 146 152 162 170 174 178 182 187 195 205 211 214 213
60 70 95 109 122 120 104 104 115 123 131 142 150 155 161 173 166 146 191 262 242 186 155 213 248 274 92 101 102 118 145 154 160 167 171 175 172 170 180 201 212 212 222 226
60 86 114 109 108 107 103 104 117 128 132 139 152 163 161 155 188 220 204 215 189 146 136 231 262 88 113 116 109 107 120 137 147 153 153 154 160 165 181 201 242 252 232 220
86 103 109 107 108 121 138 122 95 92 111 120 137 166 176 171 183 218 204 185 168 142 148 255 275 309 58 96 126 121 126 142 147 150 159 169 180 191 197 208 218 225 229 231
102 119 123 134 142 142 130 114 113 129 132 124 68 288 285 153 153 155 156 194 186 176 183 211 279 332 35 105 116 116 141 138 97 101 132 144 152 167 192 194 198 207 222 225
74 82 91 82 82 116 129 132 143 154 157 160 184 232 208 157 153 190 223 209 200 210 208 209 195 200 223 175 157 157 154 125 117 123 119 112 107 112 105 130 143 153 152 170
Height
1462 1458 1455 1455 1453 1451 1456 1462 1469 1466 1463 1459 1455 1453 1454 1457 1459 1461 1462 1464 1466 1469 1470 1470 1470 1472 1474 1476 1477 1480 1481 1483 1484 1487 1489 1490 1492 1493 1493 1494 1496 1498 1499 1500
1463 1455 1454 1454 1450 1449 1450 1451 1454 1456 1459 1452 1452 1453 1455 1456 1457 1459 1461 1463 1465 1467 1467 1467 1468 1470 1472 1474 1475 1477 1478 1479 1481 1483 1485 1487 1488 1488 1489 1491 1492 1493 1493 1494
1474 1462 1458 1464 1454 1450 1451 1449 1451 1457 1456 1451 1453 1453 1454 1455 1456 1457 1460 1462 1464 1465 1466 1466 1467 1468 1470 1471 1473 1474 1476 1477 1478 1480 1482 1483 1484 1485 1486 1486 1487 1489 1490 1490
1476 1471 1478 1464 1447 1445 1448 1449 1448 1448 1449 1449 1449 1452 1453 1454 1455 1456 1458 1460 1462 1464 1465 1465 1465 1467 1468 1470 1471 1472 1473 1474 1475 1476 1477 1479 1480 1481 1482 1482 1483 1485 1485 1485
1479 1480 1472 1458 1449 1447 1451 1455 1450 1450 1450 1450 1450 1452 1455 1455 1455 1455 1457 1459 1460 1462 1464 1464 1465 1466 1467 1468 1469 1470 1470 1472 1473 1473 1474 1476 1476 1477 1479 1479 1480 1481 1481 1480
1475 1477 1478 1463 1448 1444 1448 1460 1452 1450 1451 1451 1451 1458 1459 1456 1455 1456 1457 1458 1459 1461 1463 1463 1464 1465 1466 1466 1467 1468 1468 1469 1470 1471 1472 1473 1473 1475 1476 1476 1476 1477 1476 1477
1473 1475 1467 1454 1446 1444 1461 1464 1455 1451 1450 1451 1451 1454 1455 1455 1455 1455 1456 1456 1458 1460 1461 1462 1463 1464 1465 1465 1465 1465 1467 1467 1468 1468 1469 1470 1471 1472 1473 1473 1473 1473 1473 1473
1472 1475 1470 1451 1448 1454 1457 1453 1453 1452 1450 1450 1451 1451 1453 1454 1454 1454 1454 1456 1457 1459 1459 1459 1461 1462 1462 1462 1463 1463 1465 1465 1465 1466 1466 1467 1468 1469 1470 1470 1469 1469 1469 1469
1466 1465 1455 1451 1451 1452 1451 1451 1451 1452 1451 1451 1451 1452 1453 1453 1453 1454 1454 1455 1456 1456 1455 1456 1458 1458 1459 1460 1460 1461 1463 1463 1463 1463 1464 1465 1465 1465 1466 1467 1466 1466 1466 1466
1460 1456 1453 1451 1451 1450 1450 1450 1450 1451 1452 1452 1451 1452 1452 1453 1453 1453 1453 1453 1452 1453 1454 1454 1455 1456 1457 1457 1458 1459 1459 1460 1460 1461 1461 1462 1463 1463 1463 1463 1463 1463 1463 1463
1459 1455 1452 1450 1450 1450 1450 1449 1450 1451 1452 1452 1452 1452 1452 1453 1452 1452 1452 1452 1451 1451 1453 1453 1454 1454 1455 1455 1456 1456 1456 1457 1458 1459 1459 1459 1460 1460 1460 1460 1460 1460 1460 1460
1458 1453 1453 1451 1450 1449 1448 1449 1449 1450 1451 1451 1451 1452 1452 1452 1451 1451 1452 1451 1451 1451 1452 1453 1453 1453 1453 1454 1454 1454 1454 1455 1456 1456 1456 1457 1457 1457 1458 1458 1458 1458 1458 1458
1450 1449 1449 1449 1449 1448 1448 1448 1448 1449 1449 1449 1450 1450 1451 1451 1451 1451 1451 1450 1450 1450 1450 1451 1451 1451 1452 1452 1452 1452 1452 1452 1453 1454 1454 1454 1454 1454 1455 1455 1455 1455 1455 1455
1446 1445 1445 1446 1446 1446 1446 1446 1447 1447 1448 1448 1448 1449 1450 1450 1450 1450 1449 1449 1448 1448 1448 1449 1449 1450 1450 1451 1450 1450 1450 1450 1450 1451 1452 1453 1453 1453 1453 1452 1452 1452 1453 1453
1442 1441 1441 1442 1443 1444 1444 1445 1445 1446 1446 1446 1446 1448 1448 1448 1448 1448 1448 1447 1447 1447 1447 1447 1448 1449 1449 1449 1449 1448 1447 1448 1448 1449 1450 1451 1451 1451 1451 1451 1451 1450 1450 1450
1439 1438 1438 1440 1441 1442 1442 1443 1443 1443 1444 1444 1445 1446 1446 1447 1447 1447 1446 1446 1446 1446 1446 1447 1447 1447 1447 1447 1447 1446 1446 1447 1447 1447 1448 1448 1449 1449 1449 1449 1449 1448 1448 1448
1438 1437 1438 1438 1439 1439 1440 1440 1441 1441 1442 1443 1444 1445 1446 1446 1446 1446 1445 1445 1445 1446 1446 1446 1446 1445 1445 1445 1445 1445 1445 1445 1446 1446 1446 1446 1447 1447 1447 1447 1447 1446 1446 1446
1436 1437 1436 1436 1437 1438 1439 1439 1439 1440 1441 1442 1443 1444 1444 1445 1445 1445 1445 1445 1446 1446 1446 1445 1445 1444 1444 1444 1444 1443 1443 1443 1444 1444 1444 1445 1445 1445 1445 1445 1444 1444 1444 1444
1434 1435 1436 1436 1436 1437 1438 1438 1439 1440 1441 1441 1442 1443 1444 1445 1445 1445 1445 1446 1445 1445 1445 1445 1445 1444 1443 1443 1442 1442 1441 1442 1442 1442 1443 1443 1443 1443 1442 1442 1442 1442 1442 1441
1434 1435 1435 1435 1436 1437 1437 1438 1439 1440 1441 1441 1442 1443 1443 1444 1445 1445 1445 1445 1445 1445 1445 1444 1444 1443 1442 1441 1441 1440 1440 1440 1440 1441 1441 1441 1440 1440 1440 1440 1440 1439 1439 1439
1435 1435 1435 1435 1436 1437 1437 1438 1438 1439 1440 1441 1442 1442 1443 1444 1445 1445 1444 1444 1445 1445 1444 1443 1442 1442 1441 1440 1439 1439 1439 1439 1439 1439 1439 1438 1438 1438 1438 1438 1438 1437 1437 1437
1435 1435 1436 1436 1437 1437 1438 1438 1439 1440 1441 1441 1442 1443 1443 1444 1444 1444 1444 1444 1444 1443 1443 1442 1441 1440 1439 1439 1438 1438 1438 1437 1437 1437 1437 1437 1437 1437 1436 1436 1436 1436 1435 1435
1437 1437 1437 1437 1437 1438 1438 1439 1440 1441 1441 1442 1442 1443 1443 1443 1444 1443 1444 1444 1443 1443 1442 1441 1440 1439 1438 1438 1437 1437 1436 1436 1436 1436 1436 1436 1435 1435 1435 1435 1435 1434 1434 1433
1438 1438 1438 1438 1439 1439 1440 1441 1441 1442 1442 1443 1443 1443 1443 1443 1443 1444 1443 1443 1443 1442 1441 1440 1439 1439 1438 1438 1437 1436 1436 1435 1435 1435 1435 1434 1434 1434 1434 1433 1433 1432 1432 1431
1439 1439 1439 1440 1440 1440 1441 1442 1442 1442 1443 1443 1444 1444 1444 1444 1444 1444 1443 1443 1442 1441 1441 1440 1440 1439 1438 1438 1437 1437 1436 1436 1435 1434 1434 1434 1433 1433 1432 1432 1431 1431 1430 1429
1440 1440 1441 1441 1441 1442 1442 1442 1443 1443 1443 1444 1444 1444 1444 1444 1444 1444 1443 1443 1442 1442 1441 1440 1440 1439 1439 1438 1437 1437 1436 1436 1435 1434 1433 1433 1432 1432 1431 1430 1430 1429 1428 1427
1441 1441 1442 1442 1442 1443 1443 1443 1443 1444 1444 1444 1444 1445 1445 1444 1444 1444 1443 1443 1442 1442 1441 1440 1440 1439 1438 1437 1437 1436 1436 1435 1434 1434 1433 1432 1431 1430 1430 1429 1428 1427 1426 1425